[[{"header":{"parameterUnit":"m.s-1","parameterCategory":1,"la1":30.2991,"la2":30.254,"lo1":-89.0895,"lo2":-89.0444,"dy":0.0017,"dx":0.0017,"nx":28,"ny":28,"refTime":"2024-04-17T21:00:00:Z","depth":0,"parameterNumber":2,"parameterNumberName":"U-component_of_WINDS"},"data":[0,0,0,0,0,0,0,0,0,0,0,0,0,0,0,0,0,0,0,0,0,0,0,0,0,0,0,0,0,0,0,0,0,0,0,0,0,0,0,0,0,0,0,0,0,0,0,0,0,0,0,0,0,0,0,0,0,0,-0.9732,-0.9732,0,-0.9703,-0.9702,-0.9702,-0.9689,-0.9689,-0.9689,-0.9689,-0.9659,-0.9659,-0.9658,0,0,0,0,0,0,0,0,0,0,0,0,0,-0.9779,-0.9779,-0.9732,-0.9732,-0.9732,-0.9703,-0.9702,-0.9702,-0.9689,-0.9689,-0.9689,-0.9689,-0.966,-0.9659,-0.9658,0,0,0,0,0,0,0,0,0,0,0,0,0,-0.9755,-0.9778,-0.9732,-0.9722,-0.972,-0.9703,-0.9702,-0.9702,-0.9689,-0.9689,-0.9689,-0.9689,-0.966,-0.9659,-0.9657,-0.9648,0,0,-0.9654,-0.9653,0,0,0,0,0,0,0,0,-0.9757,-0.9754,-0.9724,-0.9722,-0.9721,-0.97,-0.9708,-0.9684,-0.9689,-0.9701,-0.9689,-0.9689,-0.9673,-0.967,-0.9665,-0.9647,-0.9646,-0.9654,-0.9653,-0.9652,-0.9652,0,0,0,0,0,0,0,-0.9758,-0.9755,-0.9721,-0.9723,-0.9722,-0.9719,-0.9715,-0.9703,-0.9687,-0.97,-0.9699,-0.9696,-0.9672,-0.9666,-0.9664,-0.9645,-0.9654,-0.9652,-0.9652,-0.9651,-0.9619,-0.9619,0,0,0,0,0,0,-0.9762,-0.9756,-0.9722,-0.972,-0.9739,-0.9718,-0.9714,-0.9706,-0.9687,-0.9684,-0.9696,-0.9695,-0.9668,-0.9665,-0.9663,-0.9651,-0.9652,-0.9651,-0.965,-0.9619,-0.9619,-0.9619,0,0,0,0,0,0,-0.9763,-0.9759,-0.9723,-0.9738,-0.9733,-0.9717,-0.9708,-0.9706,-0.97,-0.9684,-0.9681,-0.9692,-0.9668,-0.9665,-0.9652,-0.965,-0.9651,-0.9649,-0.9619,-0.9619,-0.9619,-0.9627,0,0,0,0,0,0,-0.9764,-0.9759,-0.9755,-0.9738,-0.9732,-0.9712,-0.9708,-0.9705,-0.9697,-0.9697,-0.968,-0.9677,-0.9668,-0.9654,-0.9651,-0.9648,-0.9648,-0.9619,-0.9619,-0.9619,-0.9627,-0.9627,-0.9628,0,0,0,0,0,-0.9766,-0.9759,-0.9755,-0.9751,-0.9727,-0.9712,-0.9709,-0.9698,-0.9697,-0.9693,-0.9683,-0.9678,-0.9651,-0.9653,-0.9649,-0.9646,-0.9619,-0.9619,-0.9619,-0.9627,-0.9627,-0.9628,0,0,0,0,0,0,-0.9777,-0.9756,-0.9752,-0.9739,-0.9727,-0.971,-0.9705,-0.9699,-0.9688,-0.9687,-0.9675,-0.9671,-0.966,-0.9652,-0.9654,-0.9636,-0.9635,-0.9634,-0.9642,-0.9642,-0.9642,-0.9644,-0.9647,0,0,0,0,0,-0.9777,-0.9767,-0.975,-0.974,-0.9734,-0.9721,-0.9714,-0.9707,-0.9694,-0.9689,-0.9678,-0.9667,-0.9655,-0.9648,-0.9637,-0.9626,-0.9622,-0.9622,-0.9622,-0.9623,-0.9622,-0.9615,-0.9615,-0.9618,-0.9618,-0.9618,0,0,-0.9779,-0.9767,-0.9761,-0.9742,-0.9732,-0.9722,-0.9717,-0.9706,-0.9698,-0.9688,-0.9675,-0.9667,-0.9653,-0.9641,-0.9635,-0.9634,-0.962,-0.9622,-0.9623,-0.9622,-0.9615,-0.9615,-0.9615,-0.9618,-0.9618,-0.9618,0,0,-0.9777,-0.9766,-0.9757,-0.9747,-0.9732,-0.9723,-0.9721,-0.9705,-0.9699,-0.9686,-0.9678,-0.9669,-0.965,-0.9641,-0.9633,-0.9628,-0.9623,-0.9625,-0.9626,-0.962,-0.962,-0.962,-0.9618,-0.9617,-0.9624,-0.9624,-0.9624,0,-0.9781,-0.9765,-0.9753,-0.9743,-0.9735,-0.9725,-0.9716,-0.9707,-0.9689,-0.9684,-0.9683,-0.9659,-0.965,-0.9635,-0.9634,-0.9629,-0.9626,-0.9627,-0.9621,-0.962,-0.962,-0.9618,-0.9618,-0.9625,-0.9625,-0.9625,-0.9625,0,-0.977,-0.9759,-0.9754,-0.9737,-0.9728,-0.9718,-0.9706,-0.9699,-0.9693,-0.9684,-0.9671,-0.9659,-0.9645,-0.9642,-0.9635,-0.9627,-0.9626,-0.9623,-0.9621,-0.962,-0.9618,-0.9618,-0.9625,-0.9625,-0.9625,-0.9625,0,0,-0.9774,-0.9751,-0.9749,-0.9741,-0.9724,-0.9715,-0.9706,-0.9692,-0.9686,-0.9675,-0.9666,-0.9651,-0.9648,-0.964,-0.9632,-0.9627,-0.9624,-0.9625,-0.9624,-0.9625,-0.9614,-0.9616,-0.9615,-0.962,-0.962,-0.962,-0.9615,0,-0.9769,-0.975,-0.974,-0.9726,-0.9715,-0.9706,-0.9698,-0.9687,-0.9678,-0.9669,-0.966,-0.9649,-0.9646,-0.9641,-0.9635,-0.9626,-0.9622,-0.9626,-0.9613,-0.9612,-0.9616,-0.9614,-0.9617,-0.9612,-0.9614,-0.9614,-0.9614,0,-0.9761,-0.9749,-0.9734,-0.9718,-0.9714,-0.9706,-0.9693,-0.9684,-0.9671,-0.9666,-0.9657,-0.965,-0.9639,-0.9638,-0.9624,-0.9627,-0.9621,-0.9616,-0.9615,-0.9614,-0.9613,-0.9612,-0.9611,-0.961,-0.9613,-0.9613,-0.9613,0,-0.9765,-0.9745,-0.9733,-0.9727,-0.9709,-0.9704,-0.9696,-0.9683,-0.9676,-0.9665,-0.966,-0.9648,-0.9641,-0.9632,-0.9622,-0.9623,-0.9609,-0.9607,-0.9604,-0.9605,-0.9602,-0.9602,-0.9599,-0.9598,-0.9598,-0.9598,-0.9598,0,-0.976,-0.9751,-0.9735,-0.9728,-0.9718,-0.9706,-0.9697,-0.9688,-0.9677,-0.9668,-0.966,-0.9652,-0.9639,-0.963,-0.9622,-0.9612,-0.9609,-0.9604,-0.9602,-0.9605,-0.9605,-0.9601,-0.9601,-0.9598,-0.9598,-0.9598,-0.9598,0,-0.9763,-0.9751,-0.9738,-0.9722,-0.9717,-0.9711,-0.9697,-0.969,-0.9681,-0.967,-0.9667,-0.9654,-0.9643,-0.9632,-0.9617,-0.9612,-0.9601,-0.9598,-0.9605,-0.9604,-0.9601,-0.9602,-0.9595,-0.9594,-0.9594,-0.9594,-0.9594,0,-0.9761,-0.9754,-0.9736,-0.973,-0.9722,-0.9712,-0.9704,-0.9693,-0.9685,-0.9671,-0.9666,-0.9654,-0.9643,-0.9626,-0.9615,-0.9603,-0.96,-0.9599,-0.9599,-0.9602,-0.96,-0.9601,-0.96,-0.9599,-0.9599,-0.9599,-0.9599,0,-0.9758,-0.9753,-0.9742,-0.9729,-0.972,-0.971,-0.9699,-0.9695,-0.9681,-0.9674,-0.9662,-0.9654,-0.9638,-0.9627,-0.9614,-0.9606,-0.9601,-0.9599,-0.9598,-0.9601,-0.9605,-0.9602,-0.9606,-0.96,-0.96,-0.96,-0.9599,-0.9599,-0.9758,-0.9751,-0.9738,-0.9727,-0.9717,-0.9708,-0.97,-0.9691,-0.968,-0.9667,-0.9661,-0.9649,-0.9637,-0.962,-0.9612,-0.9603,-0.9602,-0.96,-0.9599,-0.9599,-0.9599,-0.9606,-0.9601,-0.9601,-0.9601,-0.9601,-0.9601,0,-0.9755,-0.9746,-0.9736,-0.9721,-0.9712,-0.9707,-0.9695,-0.9688,-0.9677,-0.9667,-0.9657,-0.9643,-0.9632,-0.9621,-0.9609,-0.9604,-0.9601,-0.9601,-0.9601,-0.96,-0.9601,-0.9604,-0.9604,-0.9604,-0.9604,-0.9604,-0.9604,-0.9604,-0.9752,-0.9741,-0.9734,-0.9718,-0.9709,-0.9697,-0.9691,-0.9682,-0.9673,-0.9659,-0.9649,-0.9642,-0.9631,-0.9618,-0.9608,-0.9605,-0.9601,-0.9602,-0.9598,-0.96,-0.9599,-0.9599,-0.9601,-0.9601,-0.9601,-0.9597,-0.9597,-0.9597]},{"header":{"parameterUnit":"m.s-1","parameterCategory":1,"la1":30.2991,"la2":30.254,"lo1":-89.0895,"lo2":-89.0444,"dy":0.0017,"dx":0.0017,"nx":28,"ny":28,"refTime":"2024-04-17T21:00:00:Z","depth":0,"parameterNumber":3,"parameterNumberName":"V-component_of_WINDS"},"data":[0,0,0,0,0,0,0,0,0,0,0,0,0,0,0,0,0,0,0,0,0,0,0,0,0,0,0,0,0,0,0,0,0,0,0,0,0,0,0,0,0,0,0,0,0,0,0,0,0,0,0,0,0,0,0,0,0,0,2.7877,2.7877,0,2.7829,2.7828,2.7828,2.7775,2.7774,2.7773,2.7773,2.7721,2.772,2.772,0,0,0,0,0,0,0,0,0,0,0,0,0,2.7925,2.7924,2.7878,2.7877,2.7876,2.7829,2.7828,2.7827,2.7775,2.7774,2.7773,2.7772,2.7721,2.772,2.772,0,0,0,0,0,0,0,0,0,0,0,0,0,2.7893,2.7924,2.7878,2.7844,2.7841,2.7829,2.7828,2.7827,2.7775,2.7774,2.7773,2.7772,2.7721,2.772,2.7719,2.7736,0,0,2.7716,2.7716,0,0,0,0,0,0,0,0,2.7895,2.7891,2.785,2.7847,2.7843,2.7807,2.7826,2.7796,2.7775,2.78,2.7773,2.7771,2.775,2.7747,2.774,2.7733,2.7731,2.7716,2.7716,2.7715,2.7715,0,0,0,0,0,0,0,2.7897,2.7893,2.7858,2.7849,2.7845,2.7832,2.7826,2.782,2.7782,2.7798,2.7794,2.7789,2.7748,2.7741,2.7738,2.773,2.7716,2.7715,2.7715,2.7714,2.7736,2.7737,0,0,0,0,0,0,2.7904,2.7895,2.786,2.7857,2.7867,2.7832,2.7825,2.7819,2.7782,2.7775,2.779,2.7787,2.7744,2.774,2.7736,2.7754,2.7715,2.7714,2.7714,2.7735,2.7736,2.7738,0,0,0,0,0,0,2.7906,2.7902,2.7862,2.7875,2.7869,2.7832,2.7826,2.7819,2.7812,2.7776,2.7769,2.779,2.7742,2.7738,2.7737,2.7752,2.7714,2.7713,2.7733,2.7735,2.7737,2.7789,0,0,0,0,0,0,2.7907,2.7903,2.7908,2.7875,2.7868,2.7863,2.7827,2.7819,2.7811,2.7806,2.7774,2.7768,2.7741,2.7739,2.7736,2.775,2.7712,2.7732,2.7734,2.7736,2.7786,2.7793,2.7798,0,0,0,0,0,2.7909,2.7924,2.7909,2.7905,2.7875,2.7864,2.786,2.783,2.7812,2.7818,2.7795,2.7769,2.7751,2.7739,2.7735,2.7749,2.7731,2.7734,2.7736,2.7783,2.7791,2.7798,0,0,0,0,0,0,2.7959,2.7919,2.7902,2.7907,2.7889,2.7855,2.7861,2.7839,2.7825,2.7821,2.7784,2.7777,2.7781,2.7764,2.7752,2.7764,2.7737,2.7739,2.7774,2.7781,2.7788,2.7792,2.7711,0,0,0,0,0,2.7971,2.7965,2.7931,2.7939,2.7931,2.7898,2.7892,2.787,2.785,2.7842,2.7819,2.7801,2.7791,2.7785,2.7774,2.7783,2.7776,2.7791,2.7797,2.7803,2.7805,2.781,2.7817,2.7746,2.7746,2.7746,0,0,2.7994,2.7972,2.7971,2.7948,2.7932,2.7928,2.7892,2.7888,2.7885,2.7842,2.784,2.7822,2.7799,2.7804,2.7805,2.7791,2.7823,2.7806,2.781,2.781,2.7814,2.7821,2.7827,2.7748,2.7748,2.7747,0,0,2.8036,2.8018,2.8023,2.8008,2.7985,2.7963,2.7965,2.7934,2.7921,2.7919,2.7887,2.7882,2.7866,2.7851,2.7841,2.7879,2.7855,2.7877,2.7909,2.7915,2.792,2.7925,2.794,2.7946,2.7879,2.7879,2.7879,0,2.8068,2.8061,2.8029,2.8028,2.8019,2.7981,2.7987,2.7973,2.7947,2.7942,2.7927,2.7907,2.7888,2.789,2.79,2.7892,2.7894,2.788,2.7922,2.7927,2.7931,2.7944,2.795,2.7882,2.7882,2.7881,2.7881,0,2.8102,2.8098,2.8105,2.8082,2.8074,2.8076,2.8045,2.8041,2.802,2.8,2.7999,2.7976,2.796,2.7959,2.7938,2.7958,2.795,2.7929,2.7902,2.7941,2.7953,2.7958,2.7886,2.7885,2.7884,2.7884,0,0,2.8173,2.8134,2.8137,2.8127,2.8099,2.8095,2.8096,2.8081,2.8079,2.8063,2.8063,2.8051,2.8032,2.8021,2.7998,2.8003,2.8037,2.7981,2.798,2.7994,2.8059,2.8077,2.8083,2.8021,2.8022,2.8022,2.8062,0,2.8211,2.8211,2.8183,2.8191,2.8187,2.8151,2.8152,2.8135,2.8117,2.8111,2.809,2.8083,2.8057,2.8051,2.8054,2.8032,2.805,2.8029,2.8021,2.8022,2.803,2.8089,2.8107,2.8146,2.8066,2.8067,2.8068,0,2.8254,2.8242,2.825,2.8223,2.822,2.8222,2.8207,2.8202,2.8182,2.8169,2.8158,2.8133,2.8132,2.8106,2.8105,2.8092,2.8087,2.8076,2.8077,2.8076,2.8048,2.8091,2.8157,2.8163,2.8075,2.8074,2.8074,0,2.8307,2.8292,2.8295,2.8288,2.8256,2.8258,2.8245,2.8225,2.8218,2.8206,2.8201,2.8188,2.8181,2.8172,2.8144,2.8128,2.8148,2.8119,2.8137,2.8138,2.8143,2.8143,2.821,2.8138,2.8138,2.8138,2.8138,0,2.8352,2.8359,2.8319,2.8321,2.8328,2.8296,2.8303,2.8286,2.8269,2.8267,2.8235,2.8234,2.8197,2.8193,2.8171,2.8175,2.8171,2.8161,2.8155,2.8164,2.8166,2.8161,2.8158,2.814,2.8139,2.8139,2.8139,0,2.8413,2.8386,2.8388,2.8358,2.8351,2.8358,2.8332,2.8333,2.8313,2.8312,2.831,2.8279,2.8272,2.8243,2.8228,2.8214,2.8225,2.8213,2.8233,2.8229,2.8249,2.8248,2.8317,2.8325,2.8247,2.8248,2.8248,0,2.8444,2.8449,2.842,2.8418,2.8406,2.8402,2.8396,2.8364,2.8359,2.8338,2.8342,2.8333,2.8324,2.8314,2.829,2.8279,2.8268,2.8292,2.8266,2.8276,2.827,2.8271,2.8272,2.8298,2.8299,2.83,2.8301,0,2.8503,2.849,2.8483,2.8471,2.8465,2.8455,2.8442,2.8441,2.8406,2.8402,2.8395,2.8389,2.8375,2.8366,2.8352,2.8338,2.8315,2.831,2.8313,2.8323,2.8335,2.8331,2.8249,2.8308,2.8307,2.8307,2.8307,2.8306,2.8551,2.8554,2.8535,2.8528,2.8516,2.8505,2.8505,2.8486,2.848,2.8467,2.8448,2.8444,2.8426,2.8404,2.8393,2.8389,2.8375,2.8381,2.8382,2.8384,2.839,2.8335,2.8386,2.8386,2.8386,2.8385,2.8385,0,2.861,2.8596,2.859,2.8574,2.8569,2.8547,2.8533,2.853,2.8527,2.8512,2.8504,2.8497,2.8489,2.8465,2.8455,2.8457,2.8445,2.8455,2.8455,2.8453,2.8402,2.84,2.8464,2.8464,2.8464,2.8464,2.8464,2.8464,2.864,2.8644,2.8629,2.8628,2.8614,2.861,2.8604,2.8594,2.8582,2.8576,2.8569,2.8554,2.8535,2.8524,2.8516,2.8509,2.8507,2.8521,2.8511,2.8464,2.8456,2.8449,2.8447,2.8521,2.8521,2.8562,2.8563,2.8563]}]]